• In Portugal
  • List of Countries
  • For 7 days
  • Water Temperature
  • Satellite Maps
  • Weather Map
  • Weather Widgets
  • user-avatar
    Login

    Hourly Weather Canillo

    Today, 23 October, Tuesday

    Time Temperature Precipitation Wind Pressure Humidity
    00:00 +3°C° 0 mm 2 mps 623 mmHg 60%
    01:00 +3°C° 0 mm 2 mps 623 mmHg 58%
    02:00 +3°C° 0 mm 2 mps 623 mmHg 57%
    03:00 +3°C° 0 mm 2 mps 623 mmHg 56%
    04:00 +3°C° 0 mm 2 mps 624 mmHg 56%
    05:00 +3°C° 0 mm 2 mps 624 mmHg 57%
    06:00 +3°C° 0 mm 2 mps 624 mmHg 56%
    07:00 +5°C° 0 mm 2 mps 625 mmHg 52%
    08:00 +7°C° 0 mm 2 mps 626 mmHg 48%
    09:00 +9°C° 0 mm 2 mps 627 mmHg 44%
    10:00 +10°C° 0 mm 2 mps 627 mmHg 42%
    11:00 +13°C° 0 mm 2 mps 627 mmHg 40%
    12:00 +14°C° 0 mm 2 mps 628 mmHg 38%
    13:00 +13°C° 0 mm 2 mps 627 mmHg 40%
    14:00 +13°C° 0 mm 2 mps 627 mmHg 42%
    15:00 +12°C° 0 mm 3 mps 627 mmHg 44%
    16:00 +9°C° 0 mm 2 mps 626 mmHg 51%
    17:00 +7°C° 0 mm 2 mps 625 mmHg 58%
    18:00 +5°C° 0 mm 2 mps 624 mmHg 66%
    19:00 +5°C° 0 mm 2 mps 624 mmHg 62%
    20:00 +3°C° 0 mm 3 mps 624 mmHg 58%
    21:00 +3°C° 0 mm 3 mps 624 mmHg 54%
    22:00 +3°C° 0 mm 3 mps 624 mmHg 51%
    23:00 +3°C° 0 mm 3 mps 624 mmHg 48%

    Tomorrow, 24 October, Wednesday

    Time Temperature Precipitation Wind Pressure Humidity
    00:00 +3°C° 0 mm 3 mps 624 mmHg 45%
    01:00 +3°C° 0 mm 3 mps 623 mmHg 43%
    02:00 +3°C° 0 mm 3 mps 623 mmHg 41%
    03:00 +3°C° 0 mm 3 mps 623 mmHg 40%
    04:00 +3°C° 0 mm 3 mps 623 mmHg 39%
    05:00 +3°C° 0 mm 3 mps 623 mmHg 39%
    06:00 +3°C° 0 mm 3 mps 623 mmHg 39%
    07:00 +5°C° 0 mm 3 mps 624 mmHg 38%
    08:00 +8°C° 0 mm 3 mps 625 mmHg 37%
    09:00 +10°C° 0 mm 3 mps 625 mmHg 36%
    10:00 +12°C° 0 mm 3 mps 626 mmHg 36%
    11:00 +13°C° 0 mm 3 mps 626 mmHg 36%
    12:00 +14°C° 0 mm 4 mps 626 mmHg 36%
    13:00 +14°C° 0 mm 3 mps 625 mmHg 38%
    14:00 +13°C° 0 mm 3 mps 625 mmHg 41%
    15:00 +13°C° 0 mm 3 mps 624 mmHg 44%
    16:00 +11°C° 0 mm 3 mps 623 mmHg 50%
    17:00 +9°C° 0 mm 3 mps 623 mmHg 56%
    18:00 +7°C° 0 mm 3 mps 622 mmHg 62%
    19:00 +5°C° 0 mm 3 mps 622 mmHg 62%
    20:00 +5°C° 0 mm 3 mps 622 mmHg 61%
    21:00 +5°C° 0 mm 3 mps 622 mmHg 60%
    22:00 +5°C° 0 mm 3 mps 621 mmHg 61%
    23:00 +4°C° 0 mm 3 mps 621 mmHg 62%

    Day after tomorrow, 25 October, Thursday

    Time Temperature Precipitation Wind Pressure Humidity
    00:00 +4°C° 0 mm 3 mps 621 mmHg 63%
    01:00 +4°C° 0 mm 3 mps 621 mmHg 63%
    02:00 +5°C° 0 mm 2 mps 621 mmHg 63%
    03:00 +5°C° 0 mm 2 mps 620 mmHg 63%
    04:00 +5°C° 0 mm 2 mps 620 mmHg 61%
    05:00 +5°C° 0 mm 2 mps 620 mmHg 60%
    06:00 +5°C° 0 mm 2 mps 620 mmHg 59%
    07:00 +7°C° 0 mm 2 mps 621 mmHg 54%
    08:00 +11°C° 0 mm 1 mps 622 mmHg 48%
    09:00 +13°C° 0 mm 1 mps 623 mmHg 43%
    10:00 +14°C° 0 mm 1 mps 623 mmHg 40%
    11:00 +15°C° 0 mm 1 mps 624 mmHg 38%
    12:00 +18°C° 0 mm 1 mps 624 mmHg 35%
    13:00 +16°C° 0 mm 1 mps 623 mmHg 38%
    14:00 +16°C° 0 mm 1 mps 623 mmHg 42%
    15:00 +15°C° 0 mm 1 mps 622 mmHg 45%
    16:00 +13°C° 0 mm 1 mps 621 mmHg 54%
    17:00 +10°C° 0 mm 1 mps 620 mmHg 63%
    18:00 +8°C° 0 mm 1 mps 619 mmHg 72%
    19:00 +8°C° 0 mm 1 mps 619 mmHg 72%
    20:00 +7°C° 0 mm 1 mps 619 mmHg 72%
    21:00 +7°C° 0 mm 1 mps 619 mmHg 72%
    22:00 +7°C° 0 mm 1 mps 619 mmHg 72%
    23:00 +7°C° 0 mm 1 mps 619 mmHg 71%

    26 October, Friday

    Time Temperature Precipitation Wind Pressure Humidity
    00:00 +7°C° 0 mm 1 mps 618 mmHg 71%
    01:00 +6°C° 0 mm 1 mps 618 mmHg 70%
    02:00 +6°C° 0 mm 1 mps 618 mmHg 69%
    03:00 +6°C° 0 mm 1 mps 618 mmHg 69%
    04:00 +6°C° 0 mm 1 mps 617 mmHg 68%
    05:00 +6°C° 0 mm 1 mps 617 mmHg 67%
    06:00 +6°C° 0 mm 1 mps 617 mmHg 66%
    07:00 +8°C° 0 mm 1 mps 618 mmHg 60%
    08:00 +10°C° 0 mm 1 mps 619 mmHg 54%
    09:00 +11°C° 0 mm 0 mps 620 mmHg 47%
    10:00 +13°C° 0 mm 1 mps 620 mmHg 45%
    11:00 +14°C° 0 mm 1 mps 620 mmHg 43%
    12:00 +15°C° 0 mm 2 mps 620 mmHg 40%
    13:00 +14°C° 0 mm 2 mps 620 mmHg 44%
    14:00 +14°C° 0 mm 2 mps 619 mmHg 48%
    15:00 +13°C° 0 mm 1 mps 619 mmHg 51%
    16:00 +11°C° 0 mm 1 mps 618 mmHg 60%
    17:00 +9°C° 0 mm 1 mps 617 mmHg 68%
    18:00 +7°C° 0 mm 0 mps 616 mmHg 77%
    19:00 +6°C° 0 mm 0 mps 616 mmHg 78%
    20:00 +7°C° 0 mm 1 mps 616 mmHg 80%
    21:00 +7°C° 0 mm 1 mps 616 mmHg 81%
    22:00 +6°C° 0 mm 1 mps 616 mmHg 82%
    23:00 +6°C° 0 mm 1 mps 616 mmHg 82%

    27 October, Saturday

    Time Temperature Precipitation Wind Pressure Humidity
    00:00 +6°C° 0 mm 1 mps 615 mmHg 83%
    01:00 +5°C° 0 mm 2 mps 615 mmHg 84%
    02:00 +5°C° 0 mm 2 mps 615 mmHg 84%
    03:00 +4°C° 0 mm 2 mps 614 mmHg 85%
    04:00 +4°C° 0.3 mm 2 mps 614 mmHg 86%
    05:00 +4°C° 0.3 mm 2 mps 614 mmHg 87%
    06:00 +3°C° 0.3 mm 2 mps 614 mmHg 88%
    07:00 +2°C° 0.8 mm 3 mps 614 mmHg 87%
    08:00 +2°C° 0.8 mm 3 mps 614 mmHg 86%
    09:00 +1°C° 0.8 mm 3 mps 614 mmHg 85%
    10:00 +1°C° 1.9 mm 3 mps 614 mmHg 87%
    11:00 0°C° 1.9 mm 3 mps 613 mmHg 88%
    12:00 0°C° 1.9 mm 3 mps 613 mmHg 90%
    13:00 -2°C° 1.2 mm 4 mps 612 mmHg 88%
    14:00 -2°C° 1.2 mm 4 mps 612 mmHg 87%
    15:00 -3°C° 1.2 mm 4 mps 611 mmHg 86%
    16:00 -4°C° 0.2 mm 4 mps 611 mmHg 84%
    17:00 -5°C° 0.2 mm 4 mps 611 mmHg 83%
    18:00 -7°C° 0.2 mm 4 mps 610 mmHg 82%
    19:00 -7°C° 0.1 mm 4 mps 610 mmHg 82%
    20:00 -7°C° 0.1 mm 4 mps 610 mmHg 82%
    21:00 -6°C° 0.1 mm 3 mps 610 mmHg 83%
    22:00 -7°C° 0.1 mm 3 mps 609 mmHg 84%
    23:00 -7°C° 0.1 mm 3 mps 609 mmHg 85%

    28 October, Sunday

    Time Temperature Precipitation Wind Pressure Humidity
    00:00 -7°C° 0.1 mm 3 mps 609 mmHg 85%
    01:00 -8°C° 0.1 mm 3 mps 609 mmHg 85%
    02:00 -9°C° 0.1 mm 4 mps 609 mmHg 85%
    03:00 -9°C° 0.1 mm 4 mps 609 mmHg 85%
    04:00 -9°C° 0 mm 4 mps 609 mmHg 83%
    05:00 -10°C° 0 mm 4 mps 608 mmHg 82%
    06:00 -10°C° 0 mm 4 mps 608 mmHg 80%
    07:00 -10°C° 0.1 mm 4 mps 609 mmHg 77%
    08:00 -10°C° 0.1 mm 5 mps 609 mmHg 74%
    09:00 -8°C° 0.1 mm 5 mps 610 mmHg 70%
    10:00 -8°C° 0.1 mm 5 mps 610 mmHg 69%
    11:00 -8°C° 0.1 mm 6 mps 610 mmHg 68%
    12:00 -8°C° 0.1 mm 6 mps 610 mmHg 67%
    13:00 -8°C° 0.2 mm 6 mps 610 mmHg 68%
    14:00 -8°C° 0.2 mm 6 mps 609 mmHg 69%
    15:00 -9°C° 0.2 mm 7 mps 609 mmHg 71%
    16:00 -9°C° 0.2 mm 6 mps 609 mmHg 73%
    17:00 -10°C° 0.2 mm 6 mps 609 mmHg 76%
    18:00 -10°C° 0.2 mm 6 mps 609 mmHg 78%
    19:00 -10°C° 0.4 mm 6 mps 609 mmHg 79%
    20:00 -10°C° 0.4 mm 6 mps 609 mmHg 80%
    21:00 -10°C° 0.4 mm 6 mps 609 mmHg 81%
    22:00 -10°C° 0.1 mm 6 mps 609 mmHg 81%
    23:00 -10°C° 0.1 mm 6 mps 609 mmHg 81%

    29 October, Monday

    Time Temperature Precipitation Wind Pressure Humidity
    00:00 -11°C° 0.1 mm 6 mps 609 mmHg 81%
    01:00 -11°C° 0.1 mm 6 mps 608 mmHg 81%
    02:00 -11°C° 0.1 mm 6 mps 608 mmHg 81%
    03:00 -11°C° 0.1 mm 6 mps 608 mmHg 81%
    04:00 -11°C° 0.2 mm 6 mps 608 mmHg 82%
    05:00 -11°C° 0.2 mm 6 mps 607 mmHg 82%
    06:00 -11°C° 0.2 mm 6 mps 607 mmHg 82%
    07:00 -11°C° 0.3 mm 7 mps 607 mmHg 80%
    08:00 -11°C° 0.3 mm 7 mps 608 mmHg 78%
    09:00 -9°C° 0.3 mm 7 mps 608 mmHg 76%
    10:00 -10°C° 0.2 mm 8 mps 608 mmHg 75%
    11:00 -8°C° 0.2 mm 8 mps 608 mmHg 74%
    12:00 -8°C° 0.2 mm 8 mps 608 mmHg 72%
    13:00 -8°C° 0.1 mm 8 mps 608 mmHg 71%
    14:00 -8°C° 0.1 mm 7 mps 608 mmHg 70%
    15:00 -8°C° 0.1 mm 7 mps 608 mmHg 68%
    16:00 -9°C° 0 mm 6 mps 608 mmHg 72%
    17:00 -10°C° 0 mm 5 mps 608 mmHg 75%
    18:00 -10°C° 0 mm 4 mps 608 mmHg 79%
    19:00 -10°C° 0 mm 4 mps 608 mmHg 79%
    20:00 -10°C° 0 mm 4 mps 608 mmHg 80%
    21:00 -10°C° 0 mm 4 mps 608 mmHg 81%
    22:00 -10°C° 0 mm 3 mps 608 mmHg 81%
    23:00 -10°C° 0 mm 3 mps 608 mmHg 81%
    Show more